"Pseudo-MPEC" for ZH8795D

Created 2018 Apr 20 14:18:23 UT using Find_Orb

Click here for an explanation of pseudo-MPECs

 
 Astrometry: 
     ZH8795D  C2018 04 16.22999 10 49 48.70 -10 02 47.7          19.3 GUNEOCPG96
     ZH8795D  C2018 04 16.23515 10 49 48.28 -10 02 55.5          19.5 GUNEOCPG96
     ZH8795D  C2018 04 16.24030 10 49 47.87 -10 03 03.2          19.5 GUNEOCPG96
     ZH8795D  C2018 04 16.24549 10 49 47.45 -10 03 11.3          19.1 GUNEOCPG96
     ZH8795D |C2018 04 161+AstrometryLn_22s3*8[@BQV2r`o%5m[;EJ9naGYmMN,:`%MDr807
     ZH8795D |C2018 04 16bd:9@2ZukIhMehQX\8Yo_-wFG]%N(w6FkOgq;!F-K54jWemW\bqC807
     ZH8795D |C2018 04 16`=DwBrYt.e7G7SH]:ML(q)GtvX0_O-yFQvCIVq16\H]sU_1I3]Q*807
     ZH8795D KC2018 04 17gxXcWB`O!ax*).!:D7=[eL@vv-3'lJ7mtQvv8#Nv`6QU4CLobx5^H36
     ZH8795D KC2018 04 17twKiL\9DM`X]nK:v!2S/FP[;8Z+P.(!dq'FdKM%D`bl1i2V!?foGH36
     ZH8795D KC2018 04 17=a[7j^mT/tUt\SxB;jSqYf'5_m7Uo.pPe.tI!OYO^-O@`'cUrp+6H36
     ZH8795D  C2018 04 17.80920 10 47 54.93 -10 42 59.0          19.1 VSNEOCP033
     ZH8795D  C2018 04 17.81075 10 47 54.83 -10 43 01.5          20.4 VSNEOCP033
     ZH8795D  C2018 04 17.81232 10 47 54.72 -10 43 03.9          20.3 VSNEOCP033
     ZH8795D  C2018 04 17-@vUW+J@!T+cO.$AnNw\h%ywQp#\`1#\f4Aj.CD9,sHKQCsmrp*:246
     ZH8795D  C2018 04 17O)8Soc:@PF.r6=;[0!.2`VS-(J7BSu4ZN*whd=se%k!B`6-;y?v9246
     ZH8795D  C2018 04 17uOFWy8T-3hgaL*k5#V:H17.D#!=y:mO:J(R$5emVMst1d/ht$6`;246
     ZH8795D  C2018 04 17xb9U=VUWI^Ktf$xVCEfJsa[7JI2N9LCk4\GQ9b`36ki65h#_;ASBB74
     ZH8795D  C2018 04 17D?K8kn)%+P0x,r:l_+MQN=fptK2ll?5k8:)).2bmcrEoD:)yCZ':B74
     ZH8795D  C2018 04 17Fw5rc'(pc@0l#sYefv7fE5;s%^S,ST]hGIx)@b$*T'#gGDc80/N6B74
     ZH8795D KC2018 04 17JGocTU.8^h_-gC'OG2]N5%uYh4CwYH=(eK]'Zve5riXTr%f0T!5)204
     ZH8795D KC2018 04 175#qXUglW*NBV2IjbhFw:j0nb54LCj;'%sx7N@]_$2'Zx*$`LK]f;K38
     ZH8795D KC2018 04 17m5W]I^Z9yarL:0ZG9^Y@s1$Qq*V/qqV,)9/AtI@5AmO+G/SaHf[u204
     ZH8795D KC2018 04 17x:LID)XoTiU](eXV4yF/Fu;G_nb-4x(2l.6j7n`l];)@ZbPH;vX;204
     ZH8795D KC2018 04 17LM1uYr/WTv#b2mTZ-redacted;FrI)8]EB,:?UkkLVf+NO\K?D72K38
     ZH8795D KC2018 04 17xrtxjC\\Z'$@Bw^QBO#xobE$bJCa094*lX'N:;Ur\Qp@)lJ`EsI%K38
     ZH8795D  C2018 04 18.24278 10 47 24.51 -10 53 57.5          19.3 GUNEOCPI52
     ZH8795D  C2018 04 18.24478 10 47 24.35 -10 54 01.2          19.0 GUNEOCPI52
     ZH8795D  C2018 04 18.25019 10 47 24.01 -10 54 09.8          19.8 GUNEOCPI52
     ZH8795D  C2018 04 18r'hC%)95BMs4+Tyorq+#AL`4PG3IJ8BQZ?V=XE`_rNDLECvqn't6P93
     ZH8795D  C2018 04 18-[$7\ka,)]]dVn'h9A'2JK8oHhfJ:,1u0IW!d=_!!#WI^ybZZN^+P93
     ZH8795D  C2018 04 18ASS/sIYgVkc@:tvX8[Ym8jviXVIa:.(G;7tdKbtp%o0SkBk!8rk.P93
     ZH8795D  C2018 04 18n4A%](sEdu`!I$eSvjH`xm(CM)\EtDm.erEGFj1u*gDcG0DT*R13P93
     ZH8795D KC2018 04 18v^p2]EVPSv#SCIw/x(PBkw,aAa%m6miN=U1b2;pbI_AFn?(xbMvHK51
     ZH8795D KC2018 04 18hq/mQW]DebVPJBlt*0Ci,D8K6g.f6v^yjiV'4WmPgCT/5Omr\,pNK51
     ZH8795D  C2018 04 18.81262 10 46 46.88 -11 08 33.4          19.2 VSNEOCP033
     ZH8795D  C2018 04 18.81417 10 46 46.76 -11 08 35.9          19.2 VSNEOCP033
     ZH8795D KC2018 04 18Ww?y_+5[C4KgE-!+iw_Rg4Ega[M1d^b)]Ghr)fa.S,;.bo9Qmx]ZK51
     ZH8795D  C2018 04 18.81572 10 46 46.65 -11 08 38.4          19.2 VSNEOCP033
     ZH8795D KC2018 04 18g(G(=N9'20p#SB,s)oLi04QM\M%?-F!.N?\BFnx1!ab7DW=4AQeGK63
     ZH8795D  C2018 04 18$N]A[*wC2%TN,'F.E-J\,'ytHP9J.;xF74*4W*7KF?WNe?sMi0YJ246
     ZH8795D  C2018 04 18/Ss:lwbuHy/R3AI=Xt=w+k%?iHOs8UF,C/dW=(dP#3G5-fld(q)r246
     ZH8795D  C2018 04 18@2t9$*_1`\@$TQA6;K9NLN5j:(Twy7osICfN'%9gaYk0fRL7lTct246
     ZH8795D KC2018 04 18j.irbfKT5y#Xe+:ED[,W'HBmUH_!ul0dM*D'?w^RDlaBMnTpBKjaK63
     ZH8795D KC2018 04 18LFcmN@e!Kc(j`fv#0hSpf-$])ZbMAis_kf31R46op'V\W3GQTp;NK63
     ZH8795D KC2018 04 18UD/=q*,DiQ1c=jy2`ZBClUDlaRYmj4kS+b^l`'CK*`ht:U[NwX@-L01
     ZH8795D KC2018 04 18V2H.('UMoFbFHFjt**XxKmMIKG0[4XC9seexi.xJb`B/chS7L7-+L01
     ZH8795D pC2018 04 186Yx=\$l_R$]I=[l%Zpgt9v7[)N.A\m1;ENQIFCcy!F[HCo?dj2;[L01
     ZH8795D  C2018 04 19.19072 10 46 21.94 -11 18 09.3          19.6 GUNEOCPI52
     ZH8795D  C2018 04 19.19458 10 46 21.68 -11 18 13.8                UNEOCPI52
     ZH8795D  C2018 04 19.19844 10 46 21.35 -11 18 20.3          19.6 GUNEOCPI52
     ZH8795D  C2018 04 19mDdU?FH*;nXlqYiZ2jZ4b6_eU#Ugk5=Uj6U9AJaSpX2_mD)M2ECIP93
     ZH8795D  C2018 04 19*/$-F/5Cd%Y?rTi3._l@x_e[fwd0s%rk%x!nu?M.9Fc\3qv%kNV0P93
     ZH8795D  C2018 04 19+.6I.!BgsgFKhnbB.UBq7UB354bSDr8,baoc]66K7;m+;UMJ0ouKP93
     ZH8795D KC2018 04 19r5`,Qm*#,k@G`]+PtVgiIs+YF/Cp*EuV55@(Gxhl6R!A(OQJ?TCJK61
     ZH8795D KC2018 04 193C31m=0hNy#j@`7rN)6d5k_rA6B`k?dXwi0nRBy03sp$kDb[/QMnK61
     ZH8795D KC2018 04 19In_E.PL.5#xyKRQH+a[YW9JV!,?-3gV[LVCto1cLcbwo:EUZYgN^K61
     ZH8795D KC2018 04 19C)Db6WOm8#[XQ*C;V,#-UqS0MgC:;'7E%y[\((N^+c=]m`x#GUeM587
     ZH8795D KC2018 04 192_Vn!7+=*[Sfd(KIkh,9N^pu:[xgSdAm@5n2@nO$)(jG0;qV]WI2587
     ZH8795D KC2018 04 19sa0/9Q$r/xa#0[K99UB),ys\+?HG901#b'4NZOQD0W^IfZ,h@_]B587
     ZH8795D KC2018 04 19GVDHI.3K2OjmcrMl#LVZ0YFDeidK_!G`Xk.[u-fJQYgIaYL35awnC95
     ZH8795D KC2018 04 19-A3P_85;9uM+]._Xo%(F^oIE(P2q7/?x*SODEd__:2Dwt]Vjb8jFC95
     ZH8795D  C2018 04 20.nFjDXb5B'3L4bJ4'/sAu=JNnbg^bO,.?*g[?/=S5Qo`ePI8qEUjV06
     ZH8795D  C2018 04 20o/cK_!4hbBblcC2r`?blhH1?qJjpYZ?CS\nl^([KCl4@Xa[QI'@KV06
     ZH8795D  C2018 04 2089v)GPfsKIg=apRauO-cJf$+='27R$P)u4PKRpxW?eNZ5[ud0)(4V06
     ZH8795D  C2018 04 20o,sf4+$@dTI_BydNpb+i'Z$qoy5Y(=nwJgd^MB$7v(Ps[nGNEOCPV06

Station data:
(033) Karl Schwarzschild Observatory, Tautenburg  (N50.980140 E11.711240)
   Germany. 1.3-m Schmidt.
(204) Schiaparelli Observatory  (N45.867933 E8.770800)  Italy.  Observer L.
   Buzzi. 0.60-m f/4.64 Newtonian + CCD.
(246) Klet Observatory-KLENOT  (N48.863293 E14.288100)  Czech Republic.
   1.06-m KLENOT telescope.
(587) Sormano  (N45.882949 E9.229180)  Italy.  Observers F. Manca, A. Testa.
   Measurer F. Manca. 0.5-m + CCD.
(807) Cerro Tololo Observatory, La Serena  (S30.169136 W70.805900)  Chile.
   Observers M. Holman, J. Kavelaars, T. Grav, W. Fraser. Measurer M. Holman.
   4-m Blanco reflector + CCD.
(B74) Santa Maria de Montmagastrell  (N41.720161 E1.105360)  Spain.
(C95) SATINO Remote Observatory, Haute Provence  (N43.932042 E5.712390)
   France.
(G96) Mt. Lemmon Survey  (N32.442754 W110.788720)  US/Arizona.  Observers E.
   J. Christensen, A. R. Gibbs, A. D. Grauer, R. E. Hill, J. A. Johnson, R.
   A. Kowalski, S. M. Larson, F. C. Shelly. 1.5-m reflector + CCD.
(H36) Sandlot Observatory, Scranton  (N38.797693 W95.706400)  US/Kansas.
   Observer G. Hug. 0.56-m reflector + CCD.
(I52) Steward Observatory, Mt. Lemmon Station  (N32.442547 W110.788920)
   US/Arizona.
(K38) M57 Observatory, Saltrio  (N45.522304 E8.551100)  Italy.
(K51) Osservatorio del Celado, Castello Tesino  (N46.029412 E11.657900)
   Italy.
(K61) Rokycany Observatory  (N49.751403 E13.602600)  Czech Republic.
(K63) G. Pascoli Observatory, Castelvecchio Pascoli  (N44.082410 E10.462000)
   Italy.
(L01) Višnjan Observatory, Tičan  (N45.290900 E13.749300)  Croatia.
(P93) Space Tracking and Communications Center, JAXA  (N34.672353
   E133.544330)  Japan.
(V06) Catalina Sky Survey-Kuiper  (N32.416847 W110.732550)  US/Arizona.

Orbital elements:  ZH8795D
   Perihelion 2018 Jun 8.273671 +/- 0.0287 TT =  6:34:05 (JD 2458277.773671)
Epoch 2018 Apr 20.0 TT = JDT 2458228.5   Earth MOID: 0.3535   Ma: 0.0211
M 348.98507 +/- 0.09                (J2000 ecliptic)          AutoNEOCP
n   0.22354582 +/- 0.00209          Peri.  242.91973 +/- 0.08
a   2.68879898 +/- 0.0168           Node   354.77246 +/- 0.020
e   0.5299384 +/- 0.00245           Incl.   15.63692 +/- 0.08
P   4.41                   H 19.5   G  0.15   U  8.6  
q 1.26390088 +/- 0.00166    Q 4.11369708 +/- 0.032
From 65 observations 2018 Apr. 16-20; mean residual 0".42
Residuals in arcseconds: 
180416 G96  .19-  .16-    180417 204  .11+  .10+    180418 L01  .46+  .58-    
180416 G96  .18-  .13-    180417 K38  .07+  .01-    180418 L01  .04-  .14+    
180416 G96  .04-  .01-    180417 K38  .16+  .54-    180418 L01  .14-  .73+    
180416 G96  .00   .24-    180418 I52  .30-  .41+    180419 I52  .21-  .57-    
180416 807  .20+  .75-    180418 I52  .47-  .25-    180419 I52  .02+  .84+    
180416 807  .25+  .26-    180418 I52  .45+  .62-    180419 I52  .78-  .25+    
180416 807  .14-  .25-    180418 P93  .19-  .21+    180419 P93  .93+  .04+    
180417 H36  .13+  .06-    180418 P93  .10-  .19-    180419 P93  .66+  .09-    
180417 H36  .30-  .24+    180418 P93  .31-  .01-    180419 P93  .60+  .03-    
180417 H36  .83+  .64+    180418 P93  .23-  .01-    180419 K61  .34+  .07+    
180417 033  .14-  .12+    180418 K51  .06-  .01+    180419 K61  .12+  .09+    
180417 033  .08+  .01-    180418 K51  .05+  .02+    180419 K61  .10-  .18-    
180417 033  .19+  .01-    180418 033  .20+  .01+    180419 587  .35-  .25-    
180417 246  .15+  .24+    180418 033  .05+  .11-    180419 587  .54-  .08-    
180417 246  .04+  .83+    180418 K51  .01+  .06-    180419 587  .45-  .09+    
180417 246  .34-  .71+    180418 033  .05+  .24-    180419 C95  .53+  .15+    
180417 B74  .92+  .77+    180418 K63  .05+  .71-    180419 C95  .09+  .02+    
180417 B74  .49+  .43+    180418 246  .07+  1.2-    180420 V06  .07+  .19+    
180417 B74  .10+  .31+    180418 246  1.7-  .57-    180420 V06  .47+  .03+    
180417 204  .22-  .16+    180418 246  1.8-  .68-    180420 V06  .28+  .07+    
180417 K38  .36-  .43+    180418 K63  .48+  .11-    180420 V06  .36-  .20+    
180417 204  .29-  .10-    180418 K63  .14-  .31+    

Ephemerides (geocentric):
Date (UTC) HH   RA              Dec         delta   r     elong  mag " sig PA
---- -- -- --  ------------   ------------  ------ ------ -----  --- ---- ---
2018 04 20 14  10 44 55.573   -11 53 31.19  .46797 1.3724 134.2 19.9  .18 102
2018 04 20 15  10 44 53.098   -11 54 35.16  .46798 1.3723 134.1 19.9  .19 103
2018 04 20 16  10 44 50.629   -11 55 39.13  .46799 1.3721 134.1 19.9  .20 104
2018 04 20 17  10 44 48.167   -11 56 43.10  .46801 1.3719 134.0 19.9  .21 105
